Regional Weather Roundup
Issued by NWS

Home | Current Version | Previous Version | Graphics & Text | Print | Product List | Glossary On
Versions: 1 2 3 4 5 6 7 8 9 10 11 12 13 14 15 16 17 18 19 20 21 22 23 24 25 26 27 28
000
ASUS45 KBOI 111810
RWRID

IDAHO REGIONAL WEATHER ROUNDUP
NATIONAL WEATHER SERVICE BOISE ID
1100 AM MST MON DEC 11 2017

NOTE: "FAIR" INDICATES FEW OR NO CLOUDS BELOW 12000 FEET
WITH NO SIGNIFICANT WEATHER AND/OR OBSTRUCTIONS TO VISIBILITY

IDZ012-014-111900-
SOUTHWEST IDAHO


CITY           SKY/WX    TMP DP  RH WIND       PRES   REMARKS
BOISE          LGT SNOW  24  20  84 VRB3      30.71R FOG
CALDWELL       NOT AVBL
MOUNTAIN HOME  CLOUDY    22  22 100 S3        30.69S FOG
$$

IDZ016-017-111900-
SOUTHCENTRAL IDAHO


CITY           SKY/WX    TMP DP  RH WIND       PRES   REMARKS
BURLEY         SUNNY     23  20  88 SE3       30.60S
JEROME         MOSUNNY   26  18  71 SE6       30.62S WCI  19
TWIN FALLS     FOG       23  20  88 CALM      30.61S VSB<1/4
$$

IDZ019>023-111900-
SOUTHEAST IDAHO


CITY           SKY/WX    TMP DP  RH WIND       PRES   REMARKS
IDAHO FALLS    CLOUDY    21  17  84 N5        30.62S WCI  15
POCATELLO      CLOUDY    23  17  78 E3        30.62R
REXBURG        CLOUDY    21  13  71 CALM      30.61S
$$

IDZ006-010-011-018-031-032-111900-
CENTRAL IDAHO MOUNTAINS


CITY           SKY/WX    TMP DP  RH WIND       PRES   REMARKS
MCCALL         SUNNY     16  14  92 CALM      30.55R
HAILEY         MOSUNNY   32  12  43 CALM      30.59S
STANLEY          N/A      8   4  83 CALM      30.65S
SALMON         CLOUDY    16  13  88 NW3       30.77S
CHALLIS        SUNNY     17  10  74 CALM      30.67F
$$

IDZ002-004-006-007-026-111900-
NORTHERN IDAHO


CITY           SKY/WX    TMP DP  RH WIND       PRES   REMARKS
LEWISTON       CLOUDY    28  25  88 MISG      30.65R
LOWELL           N/A     27  23  85 N6        30.66F WCI  20
COEUR D`ALENE  CLOUDY    32  24  72 NE13      30.60S WCI  22
MULLAN PASS    MOSUNNY   44  -2  14 S5        30.50R
$$




USA.gov is the U.S. government's official web portal to all federal, state and local government web resources and services.